Location: Mohawk View
(42.7837°N, 73.7885°W)
Time: 06:02:26
(UTC+00:00)

Cosmos 2034 Rocket - Pass Details

Date: 17 June 2021
Orbit: 957 x 1001 km, 82.9° (Epoch: 03 August)

Event Time Altitude Azimuth Distance (km) Brightness Sun altitude
Rises 04:13:11 0° 355° (N) 3,669 8.5 -23.1°
Reaches altitude 10° 04:15:46 10° 360° (N) 2,713 7.4 -23.2°
Maximum altitude 04:21:52 58° 79° (E) 1,112 4.2 -23.4°
Enters shadow 04:23:43 42° 133° (SE) 1,341 4.3 -23.4°
